Theta_e
314 313 321 322 325 328 331 332 333 336 337 335 337 341 340 338 341 358 351 349 353 359 347 351 352 352 348 341 336 336 337 339 339 340 338 336 331 322 322 324 325 328 328 327 330 332 330 332 329
321 322 319 321 325 330 332 332 333 334 335 334 335 336 336 338 341 349 351 352 354 361 343 350 351 350 346 339 336 335 336 336 337 339 338 337 331 324 322 324 328 334 339 334 328 333 333 332 325
323 321 319 320 323 330 333 333 333 333 333 332 333 333 335 342 346 349 352 353 356 354 343 348 350 350 345 338 336 335 334 333 333 334 335 334 327 325 322 325 328 330 335 339 337 337 328 322 322
323 320 319 321 321 325 329 333 333 334 333 333 332 334 334 345 348 348 351 352 356 360 357 349 347 349 345 338 336 335 333 329 328 326 328 330 327 325 322 324 326 328 327 332 333 325 325 324 322
321 321 322 322 321 323 327 329 330 331 332 333 333 333 335 346 346 345 347 350 357 359 357 349 348 348 344 338 337 335 332 329 327 324 325 326 326 325 322 324 326 327 327 328 326 325 327 328 324
322 320 322 323 323 324 324 324 327 329 329 331 332 333 335 345 348 348 351 352 358 358 358 351 348 347 343 338 338 337 334 330 326 323 323 325 325 323 321 324 327 327 327 327 326 325 325 325 326
322 323 322 323 324 324 325 323 324 326 327 329 331 333 333 343 345 349 351 354 357 357 359 353 347 347 342 337 338 337 335 331 328 323 321 322 321 321 321 324 326 326 326 326 326 326 325 325 324
321 323 324 324 324 324 325 325 324 323 324 325 330 332 333 342 344 348 350 354 356 357 358 355 349 347 339 336 336 337 335 332 329 323 321 319 320 320 322 324 325 325 324 325 326 325 325 325 324
320 323 324 323 324 325 325 325 324 323 322 322 324 329 331 341 341 347 350 352 354 355 356 354 352 347 344 341 335 335 334 332 330 324 320 319 323 321 323 325 332 325 326 326 325 324 322 321 321
318 322 322 323 324 325 326 326 324 323 322 322 322 324 328 332 337 342 347 351 353 355 356 354 353 350 346 345 341 334 334 333 331 326 321 324 338 333 340 337 327 325 325 324 323 322 323 323 331
315 318 320 321 321 321 323 325 323 323 323 322 323 322 322 324 328 337 343 347 352 355 355 354 354 351 348 347 345 341 338 339 338 338 325 335 339 339 340 343 330 324 322 326 332 325 329 339 340
316 316 315 316 317 318 322 322 324 323 323 322 322 322 322 322 324 336 338 342 348 354 356 356 356 353 350 348 347 346 345 344 345 344 331 339 342 343 340 340 340 338 339 336 340 339 339 340 341
316 316 315 316 315 316 317 321 323 323 322 321 321 321 322 322 322 329 335 338 344 352 356 357 358 355 352 349 349 347 347 347 346 347 344 343 342 343 340 340 340 340 338 339 340 340 340 343 345
314 315 315 315 315 316 317 318 320 322 322 322 321 320 321 322 323 324 326 336 342 348 356 358 358 355 354 352 350 349 348 348 347 347 347 343 341 340 340 341 341 339 338 341 343 344 345 347 345
315 315 314 315 314 316 316 317 318 318 321 322 323 323 321 321 321 322 324 326 340 348 356 357 358 356 354 354 353 351 350 348 347 347 347 344 338 337 339 338 339 337 338 345 346 346 347 346 348
316 316 316 316 315 314 315 317 318 317 318 319 322 323 323 323 322 321 323 325 337 347 354 359 357 356 354 355 353 351 350 347 346 346 348 345 339 341 328 337 337 337 343 345 346 345 349 349 349
316 316 316 315 316 316 316 316 317 316 318 318 319 323 324 324 323 323 322 324 337 348 353 360 357 355 354 354 353 352 350 348 346 346 346 347 344 342 339 338 342 342 345 346 345 348 345 344 343
314 314 315 315 315 315 315 316 317 317 318 318 319 319 321 324 325 324 323 324 326 342 354 359 356 355 353 353 352 352 352 348 347 346 346 345 345 343 327 340 349 345 346 345 345 344 344 339 337
316 315 314 315 315 315 315 316 317 318 318 319 318 319 320 321 325 325 324 325 324 333 352 358 355 354 354 353 353 350 349 348 347 346 346 348 346 338 332 335 337 335 343 343 343 342 341 331 330
316 316 316 316 316 316 315 314 316 319 319 318 320 319 320 321 322 323 323 324 325 336 352 358 355 354 353 354 350 349 348 348 347 349 348 347 335 334 334 338 341 336 334 339 341 341 340 333 333
316 317 317 317 317 316 315 314 316 317 318 318 319 320 320 321 323 323 323 324 327 346 357 357 354 354 353 351 350 348 348 348 348 349 346 339 337 342 342 342 339 339 338 336 337 336 335 334 333
318 316 316 317 317 318 315 315 315 318 320 319 319 319 320 322 323 324 323 326 334 352 359 356 354 353 352 350 350 349 348 348 348 349 347 342 342 342 343 343 342 342 334 332 330 328 329 328 334
317 317 317 318 317 315 315 314 315 316 319 320 321 320 320 321 323 324 324 328 345 355 357 355 355 353 351 349 350 347 348 348 347 343 341 342 344 344 343 341 332 332 331 330 328 326 329 332 334
316 316 317 316 315 319 316 313 315 316 317 319 320 319 320 321 322 324 325 331 351 356 355 354 355 351 352 351 348 349 346 344 343 341 342 343 342 341 339 334 328 333 332 328 329 330 330 334 333
317 317 321 321 320 320 315 314 314 316 318 319 320 319 320 320 323 324 325 341 347 355 354 356 353 351 351 351 348 346 342 338 340 342 346 344 340 338 336 334 334 330 328 327 330 335 334 332 326
317 315 319 319 319 320 315 315 315 315 318 319 321 321 320 320 323 325 330 341 353 355 353 353 352 350 351 349 345 343 339 343 341 344 342 341 339 336 335 334 328 328 334 335 335 329 325 322 314
318 320 317 319 318 319 316 316 316 315 317 319 322 322 321 322 324 325 333 340 355 351 353 351 352 350 351 348 346 345 346 343 342 340 338 337 332 329 328 328 333 333 333 333 329 321 315 312 310
317 317 320 319 320 317 315 314 314 316 317 319 323 323 323 322 324 326 334 346 352 349 350 351 351 352 350 349 348 345 344 341 338 335 332 329 328 328 327 330 333 332 330 324 316 314 311 316 317
318 321 320 319 319 319 318 321 319 318 317 319 322 321 322 323 325 326 336 346 351 351 348 349 352 352 350 349 346 344 343 339 336 331 327 327 328 327 328 332 330 324 319 314 311 315 317 319 318
317 318 319 321 320 318 319 318 318 322 318 318 319 319 321 323 325 328 337 349 349 350 347 348 350 349 347 346 344 344 342 336 332 329 329 328 326 330 332 328 320 316 313 311 314 316 316 315 316
Wind_Speed
10 7 5 9 8 8 20 22 21 20 11 11 9 5 6 10 3 4 8 8 14 19 26 28 26 24 21 20 19 18 18 18 17 15 12 11 11 13 15 14 14 13 12 12 11 9 7 5 3
7 9 11 12 10 16 17 22 22 19 10 1 5 9 11 9 8 10 10 10 21 21 25 29 26 24 21 21 20 18 17 17 16 15 12 11 11 13 15 15 14 12 10 10 10 8 6 5 4
14 13 15 6 17 20 20 23 19 19 16 6 12 11 8 3 6 5 11 16 20 17 26 29 26 24 22 21 21 18 17 16 14 14 13 12 13 14 15 15 14 11 9 9 8 6 5 4 4
10 13 14 15 24 26 29 24 23 8 13 15 14 9 4 3 2 3 10 14 18 19 23 27 27 24 23 22 21 19 16 14 14 13 13 13 13 14 15 15 13 10 8 8 7 6 5 4 4
17 16 13 19 27 28 23 26 32 11 12 20 18 16 7 6 5 5 10 14 19 20 22 25 27 25 24 22 21 19 16 13 14 13 13 14 14 15 15 14 12 10 7 7 6 5 5 5 5
16 22 17 21 28 25 26 33 21 24 16 20 22 20 10 10 4 5 11 16 18 20 22 25 28 26 25 23 21 18 15 12 12 11 12 14 14 15 15 14 11 9 7 6 6 6 6 7 7
19 15 22 26 26 25 24 29 27 19 24 23 20 14 17 8 7 6 9 16 19 20 22 25 29 27 26 24 20 18 15 13 12 11 11 12 13 14 14 12 10 8 7 7 8 9 9 8 9
25 16 28 25 23 28 23 25 29 28 26 26 18 13 14 16 9 8 10 14 18 20 20 23 27 29 28 25 22 19 16 13 12 11 11 13 13 13 13 11 10 9 9 9 9 9 10 10 10
19 17 22 29 28 21 27 25 20 25 19 29 28 21 14 9 8 9 12 15 19 20 20 22 24 27 24 23 24 21 18 15 12 11 12 13 12 13 12 11 11 9 9 9 9 9 10 9 8
20 18 29 24 23 22 29 27 21 18 23 25 30 29 26 11 10 12 14 17 20 22 22 22 24 24 24 20 23 23 20 17 15 14 14 12 10 10 8 12 10 9 9 8 8 8 8 7 4
25 24 25 27 26 30 29 24 25 20 23 27 24 32 32 28 18 19 17 18 21 22 23 23 24 24 23 21 22 21 19 16 15 14 14 12 11 10 10 7 9 8 7 6 7 7 5 4 7
22 29 29 28 32 31 25 28 25 23 26 19 25 28 27 27 26 23 22 20 21 24 24 24 24 24 25 20 18 18 16 16 14 13 14 14 12 11 11 7 5 5 8 3 8 6 7 8 7
19 21 29 32 29 31 34 26 28 31 29 24 19 18 24 29 27 22 22 21 21 23 25 26 25 25 25 22 18 18 16 15 14 14 14 12 11 11 11 9 8 6 5 7 6 7 8 6 7
21 23 23 23 29 33 24 26 31 33 28 24 29 24 20 26 26 23 20 19 21 23 26 26 27 28 26 22 19 18 17 16 15 13 13 13 10 11 9 9 8 8 7 5 6 6 6 7 7
18 19 21 22 24 25 31 30 35 34 33 32 28 26 29 26 25 26 23 20 22 23 26 28 31 31 30 25 22 18 16 14 14 12 12 12 11 12 10 7 7 7 7 8 7 7 7 7 9
19 20 20 21 24 27 27 35 32 37 34 36 34 31 35 32 32 30 27 21 22 24 26 30 35 34 32 27 23 18 16 15 13 11 10 12 11 8 9 6 6 7 7 6 7 10 9 8 7
17 18 24 22 20 21 29 36 26 37 37 38 39 35 31 34 36 33 28 26 20 24 25 29 36 33 33 28 22 18 18 15 13 11 9 11 10 9 8 6 5 8 5 10 15 11 10 6 6
18 18 19 17 10 19 28 32 21 32 36 37 32 40 38 36 35 34 30 28 24 23 25 32 34 32 32 28 23 19 15 15 13 12 10 11 10 9 11 7 9 13 17 19 18 14 5 2 10
21 24 24 25 20 17 25 24 24 24 35 25 39 27 35 39 35 30 31 29 29 24 28 33 31 31 35 31 23 22 17 17 14 13 14 11 11 10 10 11 12 20 19 19 21 20 19 2 10
23 24 25 24 23 21 21 26 29 23 28 35 29 32 30 34 37 37 36 32 30 29 32 35 31 37 36 29 25 22 19 17 15 14 13 12 11 11 11 13 19 20 19 21 22 24 22 20 21
19 20 23 24 26 23 20 24 25 27 27 34 32 24 28 28 32 35 36 35 31 30 35 36 35 38 39 30 27 26 22 20 17 15 13 11 9 8 11 14 15 13 7 13 19 17 14 8 7
21 22 22 24 21 16 21 19 24 26 25 25 29 32 31 30 29 30 36 29 33 31 32 35 39 38 36 32 29 29 27 23 17 20 17 11 8 6 9 14 9 5 7 6 2 2 4 8 10
20 20 21 17 22 20 25 15 19 26 29 26 25 34 35 34 32 32 33 33 33 31 38 34 38 39 37 31 27 28 24 27 24 18 12 8 7 10 9 3 4 5 5 0 4 4 2 10 9
15 16 20 20 15 17 24 21 19 23 31 31 29 41 41 39 34 33 32 34 30 32 37 37 40 36 39 36 32 29 29 28 23 17 15 11 7 6 6 7 7 5 7 7 3 4 4 8 12
17 14 7 7 10 16 19 22 21 25 28 29 29 37 40 42 35 35 33 34 33 33 38 42 41 39 34 32 32 29 23 21 18 16 15 13 11 10 8 7 3 2 4 1 5 8 9 10 10
16 16 10 11 9 11 17 19 20 28 27 22 22 31 38 40 35 35 34 35 37 36 41 38 38 36 34 32 31 28 26 23 21 17 18 18 15 14 11 10 7 4 1 3 6 8 7 12 13
11 18 19 22 22 16 15 12 25 21 28 23 21 20 36 36 38 35 35 37 40 42 38 41 38 40 38 32 30 30 26 24 23 24 22 17 14 16 13 11 5 2 2 4 7 9 11 11 11
18 4 6 10 9 17 15 15 13 19 27 14 17 12 17 38 37 36 36 38 47 43 38 38 41 44 39 34 30 28 28 28 23 20 18 18 16 13 13 8 4 1 3 4 6 8 10 10 10
8 7 10 11 14 12 7 8 14 12 26 23 17 19 20 34 36 38 36 38 52 41 41 40 40 42 37 33 32 32 30 26 22 21 18 14 14 14 9 5 3 1 4 7 8 9 9 9 9
20 16 15 9 12 12 14 6 17 22 19 23 21 26 27 26 38 38 35 30 21 41 40 42 43 45 38 35 39 35 31 24 23 20 16 17 15 11 8 6 5 4 6 6 7 7 8 9 9
Wind_Direction
222 224 210 232 242 229 249 243 247 256 216 255 275 258 301 351 314 58 135 163 153 166 174 173 171 173 175 175 174 172 172 176 175 172 168 159 152 151 152 152 149 148 152 161 169 172 180 187 187
204 213 212 247 238 244 242 237 248 239 237 188 253 239 261 249 35 121 142 150 154 171 177 179 175 176 177 176 175 170 172 175 177 177 176 170 163 161 161 160 158 156 155 159 166 173 184 202 213
173 205 224 221 233 240 247 247 224 249 212 203 246 230 314 12 71 80 117 152 161 184 179 184 180 179 179 179 177 171 172 176 177 181 182 180 173 169 169 168 168 167 163 168 177 190 207 220 226
192 208 246 251 240 229 246 260 260 292 189 216 238 242 214 70 81 98 150 161 173 170 172 187 185 184 181 181 180 175 173 176 182 183 186 186 181 176 177 177 176 176 177 184 191 198 213 231 245
211 233 232 233 240 247 249 236 255 240 255 243 220 233 189 114 113 146 173 174 180 175 173 186 185 185 184 183 182 179 177 177 187 187 188 190 186 183 182 182 183 184 188 197 205 222 244 260 263
214 229 242 235 244 238 242 253 241 257 222 246 245 223 229 130 124 152 162 171 180 175 177 189 183 187 186 186 185 181 179 180 190 192 194 193 190 188 185 185 189 192 201 207 219 233 243 246 252
232 224 239 248 258 243 236 231 248 232 254 237 243 247 229 167 148 169 163 169 176 175 181 184 183 185 188 190 188 185 181 183 191 193 197 194 192 189 188 191 197 206 218 228 238 245 249 253 256
239 252 255 243 251 258 254 234 231 242 232 245 243 221 238 128 146 163 162 171 176 179 180 177 182 186 188 191 191 188 186 187 191 193 190 192 189 190 194 200 208 220 229 236 241 246 254 259 264
234 249 244 244 250 250 260 261 233 237 248 247 240 233 222 136 151 164 170 175 176 181 181 179 180 183 182 189 192 190 188 189 191 189 189 186 187 190 201 206 220 231 234 238 247 255 264 270 272
232 242 246 258 258 257 259 258 248 234 227 236 245 233 219 177 200 197 187 184 186 186 185 184 183 181 176 184 192 190 191 189 190 191 186 179 183 185 202 234 229 233 240 246 255 264 270 282 313
238 245 261 263 263 274 280 274 242 235 250 226 233 229 233 234 215 216 205 199 197 193 188 189 186 183 179 183 193 181 190 187 187 185 189 169 191 193 188 231 240 240 247 256 288 279 313 301 271
253 253 258 265 269 279 278 272 263 255 246 237 237 236 230 215 218 217 217 210 201 195 193 190 186 184 179 185 183 180 181 188 182 186 185 182 186 206 191 207 220 221 257 220 243 255 247 254 271
254 257 262 261 259 265 269 264 259 259 256 248 252 231 234 231 216 218 218 217 207 198 193 191 187 185 182 185 181 180 183 184 183 191 190 194 181 205 196 206 196 231 221 255 240 253 263 273 285
278 280 267 265 260 251 253 258 261 256 257 251 244 249 234 234 212 212 214 217 211 202 194 191 193 190 183 184 181 181 181 186 181 190 197 189 180 216 199 203 207 220 220 226 249 259 262 280 280
268 267 263 256 258 259 253 252 247 249 251 245 243 242 242 235 230 226 220 218 212 202 195 194 197 194 187 182 182 181 185 181 183 189 195 184 177 227 181 202 211 231 234 228 239 256 269 275 269
260 262 264 254 237 242 238 250 244 245 246 245 243 236 236 238 236 227 225 223 212 205 196 196 204 204 190 180 185 180 185 179 181 185 193 182 190 206 182 207 224 226 222 247 256 257 259 276 309
242 255 254 254 243 246 226 247 247 249 239 233 236 233 238 232 232 229 226 217 212 204 197 195 209 204 188 182 182 177 193 174 177 178 183 181 184 193 174 192 230 215 226 236 237 244 257 286 289
271 248 264 266 252 253 242 248 241 244 235 252 232 225 232 236 229 222 213 213 212 206 200 199 206 200 185 183 179 177 181 172 173 172 174 199 176 187 185 195 206 227 218 229 232 219 183 317 322
275 280 283 287 286 275 280 265 242 246 245 243 228 229 226 225 230 218 213 208 211 208 194 201 202 193 178 182 177 177 178 172 169 167 183 167 179 201 217 208 224 233 234 239 243 245 240 281 338
275 269 267 274 276 266 261 269 262 243 230 237 235 224 228 222 223 223 219 212 204 200 190 199 200 184 180 171 176 175 169 169 168 171 165 175 208 226 232 217 233 253 252 254 262 271 270 247 266
266 276 280 279 278 272 265 261 265 249 242 226 233 228 232 230 214 217 213 207 204 191 193 195 190 184 179 173 171 165 164 162 161 169 169 193 207 213 233 261 244 256 252 267 270 271 265 294 332
264 269 267 262 272 260 248 256 235 243 232 233 229 226 231 232 222 211 206 197 199 188 185 193 182 188 180 173 167 165 163 159 165 163 179 180 203 245 243 233 267 274 219 234 254 78 43 339 340
272 282 268 256 256 266 252 256 263 226 231 225 218 228 228 229 221 215 198 201 187 188 190 186 186 180 179 168 170 160 165 171 175 179 160 175 188 221 246 158 157 223 211 102 113 128 351 326 327
264 266 257 249 261 257 249 250 242 248 224 218 220 219 220 224 216 211 197 196 182 190 184 180 185 178 179 161 165 175 174 175 170 159 143 134 175 164 132 145 124 109 138 149 179 277 314 317 320
240 246 245 239 232 251 243 239 249 251 220 217 221 207 208 216 208 204 194 182 187 183 178 174 178 167 163 161 169 175 173 159 145 139 130 147 167 160 151 150 191 192 199 280 325 315 330 330 329
237 237 235 267 252 270 252 227 238 245 251 215 225 206 201 207 198 193 190 184 180 176 170 166 164 158 162 166 164 168 153 147 133 133 141 166 161 151 164 186 157 168 263 310 328 318 322 336 331
246 243 257 270 288 275 254 213 254 235 240 221 210 205 194 194 191 186 182 186 175 165 162 162 161 156 165 163 157 152 143 130 149 163 171 171 150 149 154 159 155 147 247 297 315 319 326 332 346
245 251 260 244 268 268 266 237 233 224 222 221 176 196 208 184 184 185 177 175 154 165 162 159 160 155 158 154 148 139 135 160 167 159 152 149 150 158 162 171 162 206 300 339 340 350 352 3 11
221 247 232 268 257 271 271 289 343 262 210 199 196 203 217 187 180 181 171 179 162 155 159 161 156 150 148 145 140 141 156 159 149 152 150 152 154 152 150 151 163 61 6 1 0 14 22 27 19
258 246 252 227 240 264 295 273 276 293 218 201 204 191 204 204 183 170 167 155 136 146 154 156 151 150 143 143 153 158 159 145 146 147 148 146 145 148 151 105 82 45 19 20 38 38 31 22 15